Find Starlink 1465

NORAD ID: 45731 Int'l Des: 2020-038 Owner: SPXS Country: US Constellation: starlink operational
LEOCIRCULAR

当前视图

正在加载3D地球...

About Starlink 1465

Starlink 1465 (NORAD 45731) is a starlink constellation satellite (v1.0) launched Jun 13, 2020 by SPXS of US. It operates in LEO, CIRCULAR orbit with a mass of 260.00 kg.

关于 Starlink 1465

正在加载描述...

即将过境

Passes for default location (London). Set your location on the main map for personalized predictions.

高度历史

Loading altitude history...

两行轨道根数

1 45731U 20038B 26167.07796109 .00050578 00000-0 43069-3 0 9994
2 45731 53.0444 104.9253 0002583 94.6004 265.5307 15.69082307331722
Epoch: Jun 16, 2026 • Age: 9 hours

当前状态

高度 365.8 km
速度 7.69 km/s
星下点 -13.84°S, 23.16°E
发射日期 Jun 13, 2020
运行时间 6 years
类型 internet

技术详情

分类 Payload
质量 260.00 kg
干质量 248.00 kg
总质量 260.00 kg
长度 0.20 m
直径 2.80 m
跨度 9.00 m
形状 Box + pan
制造商 SPXS
平台类型 Starlink
阶段状态 In Orbit
所有者/国家 SPXS/US

Most Searched